Powrót do katalogu

IRIDIUM 33 DEB

AktywnyPO
NORAD 36080·DEBRIS·🇺🇸 United States

Wystrzelony Sep 14, 1997 z Baikonur Cosmodrome

Loading…

Następne Przeloty (najbliższe 24 godziny)

TLE

Starzejące sięSource: Space-Track

Epoka: Sep 10, 2026, 06:27 UTC

1 36080U 97051VM  26253.26921644  .00001204  00000-0  32154-3 0  9996
2 36080  86.3136 249.5548 0016495 349.6876  10.3986 14.47549738513414

Śledź IRIDIUM 33 DEB w czasie rzeczywistym z AllMySat

Download on the App Store